When you browse on this site, cookies collect data to enhance your experience and personalize the content and advertising you see.
Visit our Privacy Policy to learn more. By continuing to use the site, you agree to this use of cookies and data.
  • en France
  • Liste des pays
  • À 7 jours
  • Température de l'eau
  • Carte météo
  • Widgets météo
  • user-avatar
    Se connecter

    Météo par heure à Cuiaba

    Ce jour, 20 Août, Mardi

    Heure Température Précipitation Vent Pression Humidité
    00:00 +25°C° 0 mm 1 m/s 742 mmHg 52%
    01:00 +25°C° 0 mm 1 m/s 742 mmHg 52%
    02:00 +25°C° 0 mm 2 m/s 742 mmHg 51%
    03:00 +24°C° 0 mm 2 m/s 742 mmHg 56%
    04:00 +23°C° 0 mm 2 m/s 742 mmHg 61%
    05:00 +22°C° 0 mm 1 m/s 742 mmHg 66%
    06:00 +24°C° 0 mm 2 m/s 742 mmHg 61%
    07:00 +25°C° 0 mm 2 m/s 743 mmHg 56%
    08:00 +27°C° 0 mm 2 m/s 744 mmHg 52%
    09:00 +30°C° 0 mm 2 m/s 744 mmHg 45%
    10:00 +34°C° 0 mm 2 m/s 744 mmHg 38%
    11:00 +37°C° 0 mm 3 m/s 744 mmHg 31%
    12:00 +38°C° 0 mm 3 m/s 743 mmHg 28%
    13:00 +39°C° 0 mm 3 m/s 742 mmHg 25%
    14:00 +40°C° 0 mm 3 m/s 741 mmHg 23%
    15:00 +39°C° 0 mm 3 m/s 741 mmHg 25%
    16:00 +38°C° 0 mm 3 m/s 741 mmHg 27%
    17:00 +36°C° 0 mm 2 m/s 741 mmHg 29%
    18:00 +34°C° 0 mm 2 m/s 741 mmHg 33%
    19:00 +32°C° 0 mm 2 m/s 742 mmHg 37%
    20:00 +30°C° 0 mm 2 m/s 742 mmHg 41%
    21:00 +29°C° 0 mm 2 m/s 743 mmHg 43%
    22:00 +28°C° 0 mm 3 m/s 743 mmHg 45%
    23:00 +28°C° 0 mm 3 m/s 743 mmHg 47%

    Demain, 21 Août, Mercredi

    Heure Température Précipitation Vent Pression Humidité
    00:00 +27°C° 0 mm 3 m/s 743 mmHg 50%
    01:00 +26°C° 0 mm 2 m/s 742 mmHg 54%
    02:00 +25°C° 0 mm 2 m/s 742 mmHg 57%
    03:00 +24°C° 0 mm 2 m/s 742 mmHg 60%
    04:00 +23°C° 0 mm 2 m/s 742 mmHg 63%
    05:00 +21°C° 0 mm 2 m/s 742 mmHg 66%
    06:00 +24°C° 0 mm 2 m/s 743 mmHg 60%
    07:00 +26°C° 0 mm 2 m/s 743 mmHg 54%
    08:00 +27°C° 0 mm 2 m/s 744 mmHg 48%
    09:00 +31°C° 0 mm 2 m/s 744 mmHg 40%
    10:00 +35°C° 0 mm 3 m/s 744 mmHg 33%
    11:00 +39°C° 0 mm 3 m/s 744 mmHg 25%
    12:00 +40°C° 0 mm 3 m/s 743 mmHg 23%
    13:00 +40°C° 0 mm 2 m/s 742 mmHg 21%
    14:00 +41°C° 0 mm 2 m/s 741 mmHg 19%
    15:00 +40°C° 0 mm 2 m/s 741 mmHg 20%
    16:00 +38°C° 0 mm 2 m/s 740 mmHg 22%
    17:00 +37°C° 0 mm 2 m/s 740 mmHg 24%
    18:00 +35°C° 0 mm 2 m/s 741 mmHg 27%
    19:00 +32°C° 0 mm 1 m/s 741 mmHg 29%
    20:00 +30°C° 0 mm 1 m/s 741 mmHg 32%
    21:00 +30°C° 0 mm 1 m/s 741 mmHg 33%
    22:00 +30°C° 0 mm 1 m/s 741 mmHg 34%
    23:00 +29°C° 0 mm 1 m/s 741 mmHg 35%

    Après-demain, 22 Août, Jeudi

    Heure Température Précipitation Vent Pression Humidité
    00:00 +28°C° 0 mm 1 m/s 741 mmHg 38%
    01:00 +27°C° 0 mm 1 m/s 741 mmHg 41%
    02:00 +26°C° 0 mm 1 m/s 740 mmHg 43%
    03:00 +26°C° 0 mm 1 m/s 740 mmHg 44%
    04:00 +25°C° 0 mm 1 m/s 741 mmHg 44%
    05:00 +25°C° 0 mm 1 m/s 741 mmHg 44%
    06:00 +27°C° 0 mm 1 m/s 741 mmHg 40%
    07:00 +29°C° 0 mm 2 m/s 742 mmHg 36%
    08:00 +31°C° 0 mm 2 m/s 743 mmHg 32%
    09:00 +35°C° 0 mm 2 m/s 743 mmHg 27%
    10:00 +39°C° 0 mm 2 m/s 743 mmHg 22%
    11:00 +42°C° 0 mm 2 m/s 742 mmHg 16%
    12:00 +42°C° 0 mm 2 m/s 742 mmHg 16%
    13:00 +42°C° 0 mm 2 m/s 741 mmHg 15%
    14:00 +42°C° 0 mm 2 m/s 740 mmHg 15%
    15:00 +41°C° 0 mm 2 m/s 740 mmHg 16%
    16:00 +40°C° 0 mm 2 m/s 740 mmHg 17%
    17:00 +39°C° 0 mm 2 m/s 739 mmHg 18%
    18:00 +37°C° 0 mm 2 m/s 740 mmHg 21%
    19:00 +35°C° 0 mm 2 m/s 740 mmHg 23%
    20:00 +32°C° 0 mm 2 m/s 741 mmHg 26%
    21:00 +31°C° 0 mm 2 m/s 741 mmHg 27%
    22:00 +31°C° 0 mm 1 m/s 741 mmHg 28%
    23:00 +30°C° 0 mm 1 m/s 741 mmHg 29%

    23 Août, Vendredi

    Heure Température Précipitation Vent Pression Humidité
    00:00 +30°C° 0 mm 1 m/s 741 mmHg 30%
    01:00 +29°C° 0 mm 1 m/s 741 mmHg 31%
    02:00 +29°C° 0 mm 1 m/s 741 mmHg 32%
    03:00 +28°C° 0 mm 1 m/s 741 mmHg 33%
    04:00 +27°C° 0 mm 1 m/s 741 mmHg 35%
    05:00 +27°C° 0 mm 1 m/s 741 mmHg 37%
    06:00 +29°C° 0 mm 1 m/s 741 mmHg 34%
    07:00 +31°C° 0 mm 1 m/s 742 mmHg 30%
    08:00 +32°C° 0 mm 1 m/s 743 mmHg 27%
    09:00 +35°C° 0 mm 1 m/s 743 mmHg 24%
    10:00 +37°C° 0 mm 1 m/s 743 mmHg 21%
    11:00 +41°C° 0 mm 1 m/s 742 mmHg 18%
    12:00 +41°C° 0 mm 2 m/s 742 mmHg 17%
    13:00 +41°C° 0 mm 2 m/s 741 mmHg 16%
    14:00 +41°C° 0 mm 2 m/s 740 mmHg 16%
    15:00 +40°C° 0 mm 2 m/s 740 mmHg 17%
    16:00 +39°C° 0 mm 2 m/s 740 mmHg 17%
    17:00 +37°C° 0 mm 1 m/s 740 mmHg 18%
    18:00 +35°C° 0 mm 1 m/s 740 mmHg 21%
    19:00 +34°C° 0 mm 1 m/s 740 mmHg 23%
    20:00 +32°C° 0 mm 1 m/s 740 mmHg 25%
    21:00 +31°C° 0 mm 1 m/s 740 mmHg 26%
    22:00 +30°C° 0 mm 1 m/s 740 mmHg 28%
    23:00 +29°C° 0 mm 1 m/s 740 mmHg 29%

    24 Août, Samedi

    Heure Température Précipitation Vent Pression Humidité
    00:00 +28°C° 0 mm 1 m/s 740 mmHg 30%
    01:00 +28°C° 0 mm 1 m/s 740 mmHg 31%
    02:00 +27°C° 0 mm 1 m/s 739 mmHg 32%
    03:00 +26°C° 0 mm 1 m/s 739 mmHg 34%
    04:00 +26°C° 0 mm 1 m/s 739 mmHg 35%
    05:00 +25°C° 0 mm 1 m/s 740 mmHg 37%
    06:00 +27°C° 0 mm 1 m/s 740 mmHg 33%
    07:00 +30°C° 0 mm 1 m/s 741 mmHg 29%
    08:00 +32°C° 0 mm 1 m/s 742 mmHg 24%
    09:00 +36°C° 0 mm 2 m/s 742 mmHg 21%
    10:00 +40°C° 0 mm 2 m/s 742 mmHg 17%
    11:00 +43°C° 0 mm 2 m/s 742 mmHg 14%
    12:00 +42°C° 0 mm 2 m/s 741 mmHg 13%
    13:00 +42°C° 0 mm 2 m/s 740 mmHg 13%
    14:00 +42°C° 0 mm 2 m/s 739 mmHg 13%
    15:00 +41°C° 0 mm 2 m/s 739 mmHg 14%
    16:00 +40°C° 0 mm 1 m/s 738 mmHg 15%
    17:00 +39°C° 0 mm 1 m/s 738 mmHg 16%
    18:00 +36°C° 0 mm 1 m/s 739 mmHg 17%
    19:00 +34°C° 0 mm 1 m/s 739 mmHg 19%
    20:00 +33°C° 0 mm 1 m/s 739 mmHg 21%
    21:00 +32°C° 0 mm 1 m/s 739 mmHg 22%
    22:00 +31°C° 0 mm 1 m/s 739 mmHg 23%
    23:00 +30°C° 0 mm 1 m/s 740 mmHg 24%

    25 Août, Dimanche

    Heure Température Précipitation Vent Pression Humidité
    00:00 +30°C° 0 mm 1 m/s 739 mmHg 25%
    01:00 +30°C° 0 mm 1 m/s 739 mmHg 25%
    02:00 +30°C° 0 mm 1 m/s 739 mmHg 26%
    03:00 +29°C° 0 mm 1 m/s 739 mmHg 27%
    04:00 +29°C° 0 mm 1 m/s 739 mmHg 28%
    05:00 +28°C° 0 mm 1 m/s 739 mmHg 29%
    06:00 +30°C° 0 mm 1 m/s 740 mmHg 28%
    07:00 +31°C° 0 mm 1 m/s 741 mmHg 26%
    08:00 +32°C° 0 mm 1 m/s 741 mmHg 24%
    09:00 +36°C° 0 mm 2 m/s 741 mmHg 21%
    10:00 +38°C° 0 mm 3 m/s 741 mmHg 18%
    11:00 +42°C° 0 mm 4 m/s 741 mmHg 15%
    12:00 +42°C° 0 mm 3 m/s 741 mmHg 14%
    13:00 +43°C° 0 mm 3 m/s 740 mmHg 14%
    14:00 +42°C° 0 mm 2 m/s 739 mmHg 13%
    15:00 +41°C° 0 mm 2 m/s 739 mmHg 14%
    16:00 +40°C° 0 mm 2 m/s 739 mmHg 15%
    17:00 +39°C° 0 mm 1 m/s 739 mmHg 16%
    18:00 +36°C° 0 mm 1 m/s 739 mmHg 18%
    19:00 +34°C° 0 mm 1 m/s 739 mmHg 20%
    20:00 +32°C° 0 mm 1 m/s 740 mmHg 22%
    21:00 +32°C° 0 mm 1 m/s 740 mmHg 22%
    22:00 +32°C° 0 mm 2 m/s 740 mmHg 23%
    23:00 +32°C° 0 mm 2 m/s 740 mmHg 23%
    Voir plus